Weather Roundup
Issued by NWS Corpus Christi, TX

Home | Current Version | Previous Version | Text Only | Print | Product List | Glossary On
Versions: 1 2 3 4 5 6 7 8 9 10 11 12 13 14 15 16 17 18 19 20 21 22 23 24 25 26 27 28 29 30 31 32 33 34 35 36 37 38 39 40 41 42 43 44 45 46 47 48 49 50
000
ASUS44 KCRP 272310
HRRCRP

SOUTH TEXAS REGIONAL WEATHER ROUNDUP
NATIONAL WEATHER SERVICE CORPUS CHRISTI TX
600 PM CDT WED JUL 27 2016


TXZ229>244-280000-
...CORPUS CHRISTI AREA OBSERVATIONS...

CITY           SKY/WX    TMP DP  RH WIND       PRES   REMARKS
CORPUS CHRISTI MOSUNNY   92  72  51 SE15G24   29.89F HX  99
NAS CORPUS CHR MOSUNNY   90  77  65 S17       29.91S HX 103
ROCKPORT       SUNNY     89  75  63 SE13G22   29.91F HX  99
KINGSVILLE NAS PTSUNNY   93  75  55 SE16      29.88S HX 104
ALICE          CLOUDY    93  71  48 SE18G28   29.87S HX 100
FALFURRIAS     PTSUNNY   95  67  39 SE14G21   29.86R HX  99
$$

...VICTORIA AREA OBSERVATIONS...

CITY           SKY/WX    TMP DP  RH WIND       PRES   REMARKS
VICTORIA       SUNNY     92  68  45 S24       29.91F HX  96
BEEVILLE       FAIR      91  74  56 SE15G22   29.89F HX 100
PLEASANTON     CLOUDY    77  71  83 N5        29.93R
SAN ANTONIO    LGT RAIN  76  73  91 N6        29.94F
$$

...LAREDO AREA OBSERVATIONS...

CITY           SKY/WX    TMP DP  RH WIND       PRES   REMARKS
LAREDO         PTSUNNY   93  68  43 SE7       29.88S HX  97
COTULLA        PTSUNNY   82  72  71 NE5       29.90S
DEL RIO        MOSUNNY   90  72  55 SE14      29.89F HX  97
MCALLEN        PTSUNNY   98  66  34 SE17G23   29.86S HX 101
HEBBRONVILLE   CLOUDY    95  60  30 SE13      29.88F HX  94
$$

...OTHER TEXAS OBSERVATIONS...

CITY           SKY/WX    TMP DP  RH WIND       PRES   REMARKS
BROWNSVILLE    MOSUNNY   90  72  55 SE17      29.89S HX  97
HOUSTON        CLOUDY    84  77  79 SE10      29.93F HX  94
COL. STATION   CLOUDY    85  74  69 S10       29.91F HX  92
AUSTIN         PTSUNNY   88  70  55 S12       29.91F HX  93
WACO           CLOUDY    88  73  61 SE24G31   29.90R HX  95
FORT WORTH     PTSUNNY   90  72  55 E8        29.87F HX  97
WICHITA FALLS  MOSUNNY   96  68  39 SE9       29.87F HX 101
LUBBOCK        PTSUNNY   88  58  36 N10       30.02S
EL PASO        LGT RAIN  88  60  38 E16       30.01S
$$

...MARINE OBSERVATIONS...

STATION/POSITION TIME  SKY/WX   TEMP    WIND        PRES    VSBY  WAVE   SWELL
                                AIR SEA DIR/SP/G                  HT/PER HT/PER
                 (UTC)          (F)     (DEG/KT/KT) (MB)    (MI)  (FT/S) (FT/S)
PORT ARANSAS     2300            85 89  140/ 15/ 16 1013.2F
BUOY 90 E PORT A 2250            86 86  140/  8/ 10 1013.9F         4/ 6   3/ 6
BUOY 45 SE BAFFI 2250            85 85  140/ 10/ 12 1012.5F         3/ 6   3/ 6
BUOY 200 E PT IS 2250            83 86  140/  4/  6 1014.4F         3/ 6   3/ 6
BUOY 15 E GALVES 2250            84 87  160/ 14/ 17 1014.3F         3/ 7   2/ 7
$$




USA.gov is the U.S. government's official web portal to all federal, state and local government web resources and services.